Weather History for Watsonville, CA

Change the Weather History Date:

Tuesday, October 9, 2012

  Actual Average Record
Temperature  
Mean Temperature 62 °F 61 °F  
Max Temperature 73 °F 73 °F 90 °F (1999)
Min Temperature 50 °F 49 °F 47 °F (2009)
Degree Days  
Heating Degree Days 3    
Month to date heating degree days 24  
Since 1 July heating degree days 389  
Cooling Degree Days 0    
Month to date cooling degree days 28  
Year to date cooling degree days 54  
Growing Degree Days 11 (Base 50)    
Moisture  
Dew Point 51 °F    
Average Humidity 67    
Maximum Humidity 93    
Minimum Humidity 41    
Precipitation  
Precipitation T in - 0.08 in (2000)
Month to date precipitation T  
Year to date precipitation 11.98  
Since 1 July precipitation 0.05  
Sea Level Pressure  
Sea Level Pressure 30.00 in    
Wind  
Wind Speed 4 mph (West)    
Max Wind Speed 16 mph    
Max Gust Speed 20 mph    
Visibility 10 miles    
Events      
T = Trace of Precipitation, MM = Missing Value Source: NWS Daily Summary

Daily Weather History Graph

Daily Weather History Graph

Search for Another Location

Airport:

Trip Planner

Search our weather history database for the weather conditions in past years. The results will help you decide how hot, cold, wet, or windy it might be!

Date:

Astronomy

Oct. 09, 2012 Rise Set
Actual Time 7:09 AM PDT 6:37 PM PDT
Civil Twilight 6:43 AM PDT 7:03 PM PDT
Nautical Twilight 6:13 AM PDT 7:33 PM PDT
Astronomical Twilight 5:43 AM PDT 8:04 PM PDT
Moon 1:00 AM PDT (10/9) 3:01 PM PDT (10/9)
Length of Visible Light 12h 20m
Length of Day
11h 28m
Waning Crescent, 35% of the Moon is Illuminated
Oct 9
Waning Crescent
Oct 15
New
Oct 21
First Quarter
Oct 29
Full
Nov 6
Last Quarter

Hourly Weather History & Observations

Time (PDT) Temp. Dew Point Humidity Pressure Visibility Wind Dir Wind Speed Gust Speed Precip Events Conditions
1:53 AM 57.9 °F 54.0 °F 87% 30.05 in 10.0 mi Calm Calm - N/A   Overcast
2:53 AM 57.0 °F 53.1 °F 87% 30.05 in 10.0 mi Calm Calm - N/A   Overcast
3:53 AM 57.0 °F 53.1 °F 87% 30.04 in 10.0 mi NNW 3.5 mph - N/A   Overcast
4:53 AM 55.0 °F 50.0 °F 83% 30.03 in 10.0 mi Calm Calm - N/A   Overcast
5:53 AM 53.1 °F 48.9 °F 86% 30.02 in 10.0 mi NW 3.5 mph - N/A   Mostly Cloudy
6:00 AM 51.8 °F 48.2 °F 88% 30.02 in 10.0 mi WNW 5.8 mph - N/A   Scattered Clouds
6:37 AM 51.8 °F 48.2 °F 88% 30.03 in 10.0 mi NNW 3.5 mph - N/A   Mostly Cloudy
6:53 AM 52.0 °F 48.0 °F 86% 30.03 in 10.0 mi North 3.5 mph - N/A   Overcast
7:27 AM 51.8 °F 48.2 °F 88% 30.03 in 10.0 mi Calm Calm - N/A   Overcast
7:53 AM 52.0 °F 48.9 °F 89% 30.05 in 10.0 mi Calm Calm - N/A   Overcast
8:53 AM 55.0 °F 50.0 °F 83% 30.04 in 10.0 mi Calm Calm - N/A   Overcast
9:18 AM 57.2 °F 51.8 °F 82% 30.03 in 10.0 mi Calm Calm - N/A   Scattered Clouds
9:53 AM 60.1 °F 51.1 °F 72% 30.03 in 10.0 mi Calm Calm - N/A   Clear
10:53 AM 64.9 °F 48.9 °F 56% 30.02 in 10.0 mi Calm Calm - N/A   Clear
11:53 AM 69.1 °F 46.9 °F 45% 30.01 in 10.0 mi Calm Calm - N/A   Clear
12:53 PM 71.1 °F 46.9 °F 42% 29.98 in 10.0 mi SW 9.2 mph - N/A   Overcast
1:53 PM 66.9 °F 48.9 °F 52% 29.97 in 10.0 mi SW 10.4 mph - N/A   Overcast
2:53 PM 69.1 °F 51.1 °F 53% 29.96 in 10.0 mi SW 11.5 mph - N/A   Clear
3:53 PM 66.9 °F 53.1 °F 61% 29.96 in 10.0 mi SW 10.4 mph - N/A   Clear
4:53 PM 66.0 °F 53.1 °F 63% 29.95 in 10.0 mi WSW 12.7 mph 18.4 mph N/A   Mostly Cloudy
5:53 PM 63.0 °F 53.1 °F 70% 29.95 in 10.0 mi WSW 9.2 mph - N/A   Overcast
6:53 PM 61.0 °F 53.1 °F 75% 29.96 in 10.0 mi WSW 3.5 mph - N/A   Mostly Cloudy
7:53 PM 60.1 °F 53.1 °F 78% 29.97 in 10.0 mi Calm Calm - N/A   Mostly Cloudy
8:53 PM 59.0 °F 55.0 °F 87% 29.98 in 10.0 mi ESE 5.8 mph - N/A   Mostly Cloudy
9:53 PM 59.0 °F 55.0 °F 87% 29.97 in 10.0 mi ENE 4.6 mph - N/A   Mostly Cloudy
10:53 PM 59.0 °F 55.0 °F 87% 29.97 in 10.0 mi NE 3.5 mph - N/A   Mostly Cloudy
11:08 PM 59.0 °F 55.4 °F 88% 29.98 in 10.0 mi East 3.5 mph - N/A   Mostly Cloudy
11:53 PM 57.9 °F 55.0 °F 90% 29.97 in 10.0 mi Calm Calm - 0.00 in   Mostly Cloudy